EW5975 Weather Reports


Display with metric or nautical units.
time (UTC)temp
F
wind
direction
speed
MPH
gust
MPH
rain 1hr
in
rain 24hr
in
rain mn
in
humidity
%
barometer
mb
20260504023015 55 0.0 0.0 0.00 0.00 0.00 74 1016.5
20260504022016 54 0.0 0.0 0.00 0.00 0.00 74 1016.6
20260504021015 54 0.0 0.0 0.00 0.00 0.00 74 1016.7
20260504020017 54 0.0 0.0 0.00 0.00 0.00 75 1016.6
20260504015015 54 0.0 1.0 0.00 0.00 0.00 75 1016.4
20260504014017 54 0.0 0.0 0.00 0.00 0.00 74 1016.3
20260504013019 54 0.0 0.0 0.00 0.00 0.00 74 1016.3
20260504012039 54 0.0 0.0 0.00 0.00 0.00 74 1016.4
20260504011019 54 0.0 1.0 0.00 0.00 0.00 74 1016.6
20260504010019 54 0.0 0.0 0.00 0.00 0.00 74 1016.7
20260504005017 54 0.0 0.0 0.00 0.00 0.00 75 1016.7
20260504004017 54 0.0 0.0 0.00 0.00 0.00 74 1016.8
20260504003037 54 0.0 0.0 0.00 0.00 0.00 74 1016.9
20260504002017 55 0.0 0.0 0.00 0.00 0.00 75 1017.0
20260504001017 55 0.0 0.0 0.00 0.00 0.00 75 1017.1
20260504000017 55 0.0 0.0 0.00 0.00 0.00 76 1017.1
20260503235017 55 0.0 0.0 0.00 0.00 0.00 75 1017.4
20260503234037 55 0.0 0.0 0.00 0.00 0.00 74 1017.4
20260503233017 55 0.0 0.0 0.00 0.00 0.00 74 1017.5
20260503232017 55 0.0 0.0 0.00 0.00 0.00 72 1017.6
20260503231017 55 0.0 0.0 0.00 0.00 0.00 72 1017.5
20260503230017 55 0.0 0.0 0.00 0.00 0.00 72 1017.6
20260503225017 55 0.0 0.0 0.00 0.00 0.00 72 1017.6
20260503224017 55 0.0 0.0 0.00 0.00 0.00 72 1017.6
20260503223017 55 0.0 0.0 0.00 0.00 0.00 72 1017.7
20260503222017 55 0.0 0.0 0.00 0.00 0.00 72 1017.6
20260503221017 55 0.0 0.0 0.00 0.00 0.00 73 1017.6
20260503220017 56 0.0 0.0 0.00 0.00 0.00 74 1017.6
20260503215017 56 0.0 0.0 0.00 0.00 0.00 75 1017.5
20260503214017 56 0.0 0.0 0.00 0.00 0.00 76 1017.5
20260503213037 56 0.0 0.0 0.00 0.00 0.00 76 1017.4
20260503212018 56 0.0 0.0 0.00 0.00 0.00 76 1017.4
20260503211017 57 0.0 0.0 0.00 0.00 0.00 78 1017.3
20260503210016 57 0.0 0.0 0.00 0.00 0.00 78 1017.2
20260503205016 57 0.0 0.0 0.00 0.00 0.00 78 1017.3
20260503204017 57 0.0 0.0 0.00 0.00 0.00 78 1017.3
20260503203018 57 0.0 0.0 0.00 0.00 0.00 78 1017.4
20260503202016 58 0.0 0.0 0.00 0.00 0.00 78 1017.6
20260503201017 58 0.0 0.0 0.00 0.00 0.00 79 1017.7
20260503200017 58 0.0 0.0 0.00 0.00 0.00 79 1017.7
20260503195017 58 0.0 0.0 0.00 0.00 0.00 79 1017.7
20260503194057 59 0.0 0.0 0.00 0.00 0.00 78 1017.7
20260503193037 59 0.0 0.0 0.00 0.00 0.00 78 1017.5
20260503192016 59 0.0 0.0 0.00 0.00 0.00 78 1017.4
20260503191017 60 0.0 0.0 0.00 0.00 0.00 77 1017.3
20260503190016 60 0.0 0.0 0.00 0.00 0.00 77 1017.2
20260503185016 60 0.0 0.0 0.00 0.00 0.00 77 1017.2
20260503184058 60 0.0 0.0 0.00 0.00 0.00 76 1017.2
20260503183016 61 0.0 0.0 0.00 0.00 0.00 76 1017.3
20260503182016 61 0.0 1.0 0.00 0.00 0.00 76 1017.2
20260503181016 61 0.0 1.0 0.00 0.00 0.00 75 1017.2
20260503180016 61 0.0 0.0 0.00 0.00 0.00 75 1017.2
20260503175018 62 0.0 2.0 0.00 0.00 0.00 74 1017.2
20260503174056 62 0.0 2.0 0.00 0.00 0.00 73 1017.1
20260503173016 62 0.0 2.0 0.00 0.00 0.00 72 1017.2
20260503172016 62 0.0 2.0 0.00 0.00 0.00 70 1017.1
20260503171036 63 113 1.0 2.0 0.00 0.00 0.00 69 1017.1
20260503131015 67 113 1.0 5.0 0.00 0.00 0.00 60 1018.6
20260503081017 65 113 1.0 3.0 0.00 0.00 0.00 52 1019.5
20260503072017 60 0.0 1.0 0.00 0.00 0.00 57 1019.5
20260503071017 59 0.0 2.0 0.00 0.00 0.00 55 1019.2
20260503055016 54 0.0 0.0 0.00 0.00 0.00 66 1018.9
20260503054016 53 0.0 0.0 0.00 0.00 0.00 64 1018.9
20260503053017 54 0.0 0.0 0.00 0.00 0.00 63 1019.1
20260503052016 54 0.0 0.0 0.00 0.00 0.00 63 1019.0
20260503051016 54 0.0 0.0 0.00 0.00 0.00 63 1018.9
20260503050016 54 0.0 0.0 0.00 0.00 0.00 62 1019.0
20260503045016 54 0.0 0.0 0.00 0.00 0.00 62 1019.0
20260503044016 54 0.0 0.0 0.00 0.00 0.00 61 1019.1
20260503043016 54 0.0 0.0 0.00 0.00 0.00 61 1019.2
20260503042016 54 0.0 0.0 0.00 0.00 0.00 60 1019.2
20260503041016 54 0.0 1.0 0.00 0.00 0.00 61 1019.3
20260503040036 54 0.0 1.0 0.00 0.00 0.00 60 1019.3
20260503035016 54 0.0 0.0 0.00 0.00 0.00 59 1019.3
20260503034016 54 0.0 1.0 0.00 0.00 0.00 59 1019.1
20260503033016 54 0.0 0.0 0.00 0.00 0.00 59 1018.9
20260503032016 54 0.0 0.0 0.00 0.00 0.00 59 1019.0
20260503031016 54 0.0 0.0 0.00 0.00 0.00 58 1019.1
20260503030016 54 0.0 0.0 0.00 0.00 0.00 58 1019.2
20260503025036 55 0.0 1.0 0.00 0.00 0.00 57 1019.3
20260503024016 55 0.0 0.0 0.00 0.00 0.00 57 1019.3